FW3997 Weather Reports


Display with metric or nautical units.
time (UTC)temp
F
wind
direction
speed
MPH
gust
MPH
rain 1hr
in
rain 24hr
in
rain mn
in
humidity
%
barometer
mb
20260906231022 59 71 6.0 9.0 0.00 0.03 0.03 81 1018.3
20260906230520 59 71 6.0 9.0 0.00 0.03 0.03 80 1018.4
20260906230031 60 71 6.0 10.0 0.00 0.03 0.03 81 1018.4
20260906225518 60 71 6.0 10.0 0.00 0.03 0.03 82 1018.4
20260906225017 60 71 6.0 11.0 0.00 0.03 0.03 82 1018.3
20260906224534 60 71 6.0 11.0 0.00 0.03 0.03 81 1018.2
20260906224010 60 71 7.0 11.0 0.00 0.03 0.03 82 1018.2
20260906223512 60 71 5.0 10.0 0.00 0.03 0.03 82 1018.0
20260906223024 60 71 7.0 10.0 0.00 0.03 0.03 82 1018.0
20260906222512 60 71 8.0 11.0 0.00 0.03 0.03 81 1018.1
20260906222014 60 71 7.0 11.0 0.00 0.03 0.03 81 1017.9
20260906221532 60 71 6.0 11.0 0.00 0.03 0.03 80 1017.9
20260906221014 60 71 7.0 10.0 0.00 0.03 0.03 81 1017.9
20260906220518 60 71 5.0 9.0 0.00 0.03 0.03 80 1017.9
20260906220031 60 71 4.0 6.0 0.00 0.03 0.03 81 1017.9
20260906215516 60 71 3.0 6.0 0.00 0.03 0.03 80 1018.1
20260906215018 60 71 4.0 9.0 0.00 0.03 0.03 81 1018.0
20260906214512 60 71 4.0 9.0 0.00 0.03 0.03 81 1018.1
20260906214009 60 71 4.0 8.0 0.00 0.03 0.03 82 1018.1
20260906213509 60 71 4.0 10.0 0.00 0.03 0.03 81 1018.0
20260906213020 60 71 4.0 10.0 0.00 0.03 0.03 82 1018.2
20260906212512 60 71 3.0 10.0 0.00 0.03 0.03 81 1018.3
20260906212012 60 71 2.0 6.0 0.00 0.03 0.03 81 1018.3
20260906211527 60 71 4.0 6.0 0.00 0.03 0.03 81 1018.3
20260906211016 60 71 2.0 5.0 0.00 0.03 0.03 79 1018.4
20260906210503 60 71 3.0 5.0 0.00 0.03 0.03 79 1018.5
20260906210007 60 71 3.0 5.0 0.00 0.03 0.03 81 1018.4
20260906205506 59 71 3.0 5.0 0.00 0.03 0.03 80 1018.4
20260906205007 59 71 3.0 4.0 0.00 0.03 0.03 79 1018.3
20260906204510 59 71 2.0 4.0 0.00 0.03 0.03 79 1018.3
20260906204005 59 71 3.0 4.0 0.00 0.03 0.03 79 1018.1
20260906203519 60 71 3.0 4.0 0.00 0.03 0.03 79 1018.2
20260906203014 60 71 3.0 4.0 0.00 0.03 0.03 78 1018.2
20260906202511 60 71 2.0 5.0 0.00 0.03 0.03 77 1018.3
20260906202009 60 71 3.0 5.0 0.00 0.03 0.03 77 1018.3
20260906201523 61 71 2.0 4.0 0.00 0.03 0.03 79 1018.4
20260906201011 61 71 2.0 5.0 0.00 0.03 0.03 79 1018.5
20260906200512 61 71 3.0 5.0 0.00 0.03 0.03 76 1018.5
20260906200024 61 71 0.0 0.0 0.00 0.03 0.03 75 1018.5
20260906195514 62 71 0.0 0.0 0.00 0.03 0.03 77 1018.5
20260906195003 62 71 0.0 0.0 0.00 0.03 0.03 77 1018.6
20260906194508 62 71 0.0 0.0 0.00 0.03 0.03 77 1018.5
20260906194007 62 71 0.0 0.0 0.00 0.03 0.03 78 1018.3
20260906193508 61 71 0.0 0.0 0.00 0.03 0.03 79 1018.2
20260906193012 61 71 0.0 0.0 0.01 0.03 0.03 81 1018.4
20260906192509 60 71 0.0 0.0 0.01 0.03 0.03 82 1018.6
20260906192007 60 71 0.0 0.0 0.01 0.03 0.03 83 1018.6
20260906191516 59 71 0.0 0.0 0.01 0.03 0.03 83 1018.6
20260906191009 59 71 0.0 0.0 0.01 0.03 0.03 84 1018.6
20260906190515 59 71 0.0 0.0 0.01 0.03 0.03 86 1018.5
20260906190034 59 71 0.0 0.0 0.01 0.03 0.03 88 1018.6
20260906185512 58 71 0.0 0.0 0.01 0.03 0.03 90 1018.6
20260906185015 58 71 0.0 0.0 0.01 0.03 0.03 92 1018.7
20260906184528 58 71 0.0 0.0 0.01 0.03 0.03 93 1018.7
20260906184015 58 71 0.0 0.0 0.01 0.03 0.03 95 1018.8
20260906183516 58 71 0.0 4.0 0.01 0.03 0.03 96 1018.7
20260906183011 57 71 0.0 4.0 0.00 0.02 0.02 97 1019.0
20260906182508 57 71 0.0 0.0 0.00 0.02 0.02 98 1019.1
20260906182009 57 71 0.0 3.0 0.00 0.02 0.02 98 1018.9
20260906181518 56 71 0.0 3.0 0.00 0.02 0.02 99 1019.1
20260906181007 56 71 1.0 3.0 0.00 0.03 0.02 99 1019.1
20260906180509 55 71 1.0 4.0 0.00 0.03 0.02 99 1019.1
20260906180021 55 71 2.0 4.0 0.00 0.03 0.02 99 1018.9
20260906175510 55 71 3.0 5.0 0.00 0.03 0.02 99 1018.8
20260906175012 55 71 2.0 5.0 0.00 0.03 0.02 99 1018.7
20260906174526 55 71 3.0 5.0 0.00 0.03 0.02 99 1019.0
20260906174015 54 71 1.0 3.0 0.00 0.03 0.02 99 1019.3
20260906173513 54 71 2.0 4.0 0.00 0.03 0.02 99 1019.3
20260906173032 53 71 2.0 4.0 0.01 0.03 0.02 99 1019.4
20260906172513 53 71 1.0 4.0 0.01 0.03 0.02 99 1019.5
20260906172018 53 71 0.0 3.0 0.01 0.03 0.02 99 1019.6
20260906171508 53 71 0.0 3.0 0.01 0.03 0.02 99 1019.5
20260906171007 53 71 0.0 4.0 0.01 0.03 0.02 99 1019.6
20260906170508 53 71 1.0 5.0 0.01 0.03 0.02 99 1019.7
20260906170025 53 71 3.0 6.0 0.01 0.03 0.02 99 1019.6
20260906165510 53 71 4.0 6.0 0.01 0.03 0.02 99 1019.6
20260906165012 53 71 4.0 6.0 0.01 0.03 0.02 99 1019.6
20260906164520 52 71 3.0 5.0 0.01 0.03 0.02 99 1019.8
20260906164014 52 71 3.0 5.0 0.01 0.03 0.02 98 1020.0
20260906163511 52 71 3.0 8.0 0.01 0.03 0.02 98 1020.1
20260906163024 52 71 4.0 8.0 0.00 0.02 0.01 99 1020.1
20260906162514 51 71 5.0 8.0 0.00 0.02 0.01 98 1020.1
20260906162018 51 71 5.0 8.0 0.00 0.02 0.01 98 1020.2
20260906161530 51 77 4.0 7.0 0.00 0.02 0.01 98 1020.1
20260906161018 51 77 4.0 7.0 0.00 0.02 0.01 98 1020.1
20260906160515 52 77 4.0 7.0 0.00 0.02 0.01 98 1020.2
20260906160032 53 77 3.0 5.0 0.00 0.02 0.01 98 1020.1
20260906155509 53 77 3.0 5.0 0.00 0.02 0.01 98 1020.1
20260906155008 53 77 3.0 5.0 0.00 0.02 0.01 98 1020.1
20260906154516 53 77 2.0 5.0 0.00 0.02 0.01 98 1019.9
20260906154012 53 77 3.0 7.0 0.00 0.03 0.01 98 1019.9
20260906153509 53 77 5.0 8.0 0.00 0.03 0.01 99 1020.1
20260906153029 53 77 5.0 8.0 0.00 0.03 0.01 99 1020.3
20260906152512 53 77 3.0 10.0 0.00 0.03 0.01 98 1020.4
20260906152017 53 77 6.0 10.0 0.00 0.03 0.01 99 1020.4
20260906151527 53 77 6.0 12.0 0.00 0.04 0.01 98 1020.3
20260906151013 53 77 9.0 12.0 0.00 0.04 0.01 98 1019.9
20260906150517 52 67 8.0 12.0 0.00 0.04 0.01 99 1020.1
20260906150039 52 38 8.0 10.0 0.00 0.04 0.01 99 1020.2
20260906145516 52 22 6.0 11.0 0.00 0.05 0.01 99 1020.3
20260906145020 52 22 7.0 11.0 0.00 0.06 0.01 99 1020.1
20260906144507 52 355 6.0 10.0 0.00 0.06 0.01 98 1020.3
20260906144003 52 343 7.0 9.0 0.00 0.08 0.01 98 1020.4
20260906143506 52 343 4.0 8.0 0.00 0.10 0.01 98 1020.4
20260906143005 52 343 5.0 6.0 0.00 0.12 0.01 99 1020.3
20260906142504 52 343 3.0 5.0 0.00 0.12 0.01 99 1020.3
20260906142006 52 343 3.0 5.0 0.00 0.14 0.01 99 1020.5
20260906141504 52 343 0.0 2.0 0.00 0.14 0.01 99 1020.4
20260906141004 52 343 0.0 0.0 0.00 0.16 0.01 99 1020.4
20260906140503 52 343 0.0 0.0 0.00 0.18 0.01 99 1020.6
20260906140005 52 343 0.0 0.0 0.00 0.19 0.01 98 1020.5
20260906135503 52 343 0.0 0.0 0.00 0.20 0.01 98 1020.5
20260906135002 51 343 0.0 0.0 0.00 0.20 0.01 98 1020.5
20260906134514 51 343 0.0 2.0 0.00 0.20 0.01 98 1020.3
20260906134006 51 343 0.0 4.0 0.00 0.20 0.01 98 1020.3
20260906133503 51 343 1.0 5.0 0.00 0.20 0.01 98 1020.4
20260906133008 51 343 3.0 6.0 0.00 0.20 0.01 98 1020.4
20260906132504 51 343 4.0 6.0 0.00 0.20 0.01 98 1020.4
20260906132008 51 343 4.0 5.0 0.00 0.20 0.01 98 1020.2
20260906131508 51 343 3.0 6.0 0.00 0.20 0.01 98 1020.1
20260906131007 51 343 4.0 6.0 0.00 0.20 0.01 98 1020.0
20260906130504 51 343 3.0 5.0 0.00 0.20 0.01 98 1019.9
20260906130004 51 343 3.0 5.0 0.00 0.20 0.01 98 1019.7
20260906125504 51 343 3.0 6.0 0.00 0.20 0.01 98 1019.7
20260906125005 51 343 3.0 6.0 0.00 0.20 0.01 98 1019.9
20260906124506 51 343 3.0 5.0 0.00 0.20 0.01 98 1020.2
20260906124006 51 343 3.0 5.0 0.00 0.20 0.01 98 1020.4
20260906123506 51 343 3.0 5.0 0.00 0.20 0.01 98 1020.6
20260906123010 51 343 4.0 5.0 0.00 0.20 0.01 98 1020.6
20260906122506 51 343 3.0 6.0 0.00 0.20 0.01 98 1020.8
20260906122004 51 343 4.0 6.0 0.00 0.20 0.01 98 1020.6
20260906121508 51 343 4.0 6.0 0.00 0.20 0.01 98 1020.4
20260906121008 51 343 3.0 6.0 0.00 0.20 0.01 98 1020.2
20260906120507 51 343 4.0 6.0 0.00 0.20 0.01 98 1020.0
20260906120007 51 343 4.0 6.0 0.00 0.20 0.01 98 1020.2
20260906115508 51 343 2.0 4.0 0.00 0.20 0.01 98 1020.6
20260906115006 51 343 0.0 3.0 0.00 0.20 0.01 98 1021.0
20260906114508 51 343 1.0 4.0 0.00 0.20 0.01 98 1021.1
20260906114005 50 343 2.0 4.0 0.00 0.20 0.01 98 1021.0
20260906113506 50 343 2.0 4.0 0.00 0.20 0.01 98 1021.0
20260906113010 50 343 1.0 3.0 0.00 0.20 0.01 98 1021.0
20260906112508 50 343 2.0 4.0 0.00 0.20 0.01 98 1020.9
20260906112008 50 343 3.0 4.0 0.00 0.20 0.01 98 1021.0
20260906111508 50 343 2.0 4.0 0.00 0.20 0.01 98 1021.0
20260906111008 51 343 2.0 4.0 0.00 0.20 0.01 98 1021.0
20260906110508 51 343 1.0 4.0 0.00 0.20 0.01 98 1021.0
20260906110012 51 343 3.0 5.0 0.00 0.20 0.01 98 1021.0
20260906105508 50 343 3.0 5.0 0.00 0.20 0.01 98 1021.1
20260906105007 50 343 4.0 5.0 0.00 0.20 0.01 98 1021.1
20260906104508 50 343 3.0 5.0 0.00 0.20 0.01 98 1021.4
20260906104008 50 343 2.0 4.0 0.00 0.20 0.01 98 1021.6
20260906103508 50 343 1.0 4.0 0.00 0.20 0.01 98 1021.7
20260906103012 50 343 1.0 3.0 0.00 0.20 0.01 98 1021.8
20260906102507 50 343 0.0 0.0 0.00 0.20 0.01 98 1022.0
20260906102006 50 343 0.0 1.0 0.00 0.20 0.01 98 1022.0
20260906101512 50 343 0.0 1.0 0.00 0.20 0.01 98 1021.9
20260906101007 50 343 0.0 2.0 0.00 0.20 0.01 98 1022.0
20260906100511 50 343 0.0 4.0 0.00 0.20 0.01 98 1021.9
20260906100010 50 343 1.0 5.0 0.00 0.20 0.01 98 1021.7
20260906095509 50 343 2.0 6.0 0.00 0.20 0.01 98 1021.7
20260906095010 50 343 3.0 6.0 0.00 0.20 0.01 98 1021.5
20260906094514 50 343 3.0 8.0 0.00 0.20 0.01 98 1021.6
20260906094009 50 343 4.0 9.0 0.00 0.20 0.01 98 1021.6
20260906093508 50 343 6.0 9.0 0.00 0.20 0.01 98 1021.4
20260906093011 50 343 4.0 9.0 0.00 0.20 0.01 98 1021.6
20260906092511 49 343 6.0 8.0 0.00 0.20 0.01 98 1021.7
20260906092013 49 343 6.0 10.0 0.00 0.20 0.01 98 1021.7
20260906091516 49 343 7.0 10.0 0.00 0.20 0.01 98 1021.8
20260906091006 49 343 5.0 10.0 0.00 0.20 0.01 98 1021.9
20260906090508 49 343 5.0 10.0 0.00 0.20 0.01 98 1021.9
20260906090011 49 343 6.0 10.0 0.00 0.20 0.01 98 1021.8
20260906085509 49 343 6.0 9.0 0.00 0.20 0.01 98 1021.8
20260906085010 49 343 6.0 9.0 0.00 0.20 0.01 98 1022.2
20260906084517 49 343 4.0 10.0 0.00 0.20 0.01 98 1022.5
20260906084012 49 343 7.0 10.0 0.00 0.20 0.01 98 1022.4
20260906083511 49 343 5.0 10.0 0.00 0.20 0.01 98 1022.4
20260906083017 49 343 7.0 10.0 0.00 0.20 0.01 98 1022.4
20260906082512 49 343 6.0 10.0 0.00 0.20 0.01 98 1022.4
20260906082013 49 343 6.0 10.0 0.00 0.20 0.01 98 1022.4
20260906081518 49 343 6.0 10.0 0.00 0.20 0.01 98 1022.5
20260906081011 49 343 6.0 9.0 0.00 0.20 0.01 98 1022.5
20260906080514 49 343 4.0 6.0 0.00 0.20 0.01 98 1022.5
20260906080018 49 343 3.0 6.0 0.00 0.20 0.01 98 1022.6
20260906075512 49 343 3.0 8.0 0.00 0.20 0.01 98 1022.5
20260906075008 49 343 5.0 9.0 0.00 0.20 0.01 98 1022.6
20260906074510 49 343 6.0 10.0 0.00 0.20 0.01 98 1022.7
20260906074014 49 343 7.0 10.0 0.00 0.20 0.01 98 1022.7
20260906073513 49 343 5.0 9.0 0.00 0.20 0.01 98 1022.7
20260906073022 49 343 5.0 10.0 0.00 0.20 0.01 98 1022.8
20260906072511 49 343 6.0 10.0 0.00 0.20 0.01 98 1022.8
20260906072011 49 341 6.0 11.0 0.00 0.20 0.01 98 1022.8
20260906071522 49 338 6.0 11.0 0.00 0.20 0.01 98 1023.0
20260906071013 49 337 7.0 10.0 0.00 0.20 0.01 98 1023.1
20260906070509 49 329 6.0 10.0 0.01 0.20 0.01 98 1023.2
20260906070023 49 327 5.0 9.0 0.01 0.20 0.01 97 1023.2
20260906065514 49 327 6.0 9.0 0.01 0.20 0.01 97 1023.2
20260906065014 49 327 5.0 8.0 0.01 0.20 0.01 97 1023.3
20260906064520 49 327 5.0 8.0 0.01 0.20 0.01 97 1023.4
20260906064014 49 327 5.0 8.0 0.01 0.20 0.01 97 1023.2
20260906063506 49 327 5.0 9.0 0.01 0.20 0.01 97 1023.3
20260906063013 49 327 5.0 9.0 0.01 0.20 0.01 97 1023.3
20260906062509 49 327 6.0 9.0 0.01 0.20 0.01 97 1023.3
20260906062012 49 327 4.0 8.0 0.01 0.20 0.01 97 1023.3
20260906061520 49 327 5.0 8.0 0.01 0.20 0.01 97 1023.3
20260906061012 49 327 4.0 6.0 0.01 0.20 0.01 97 1023.3
20260906060514 49 327 4.0 6.0 0.00 0.19 0.00 97 1023.4
20260906060025 49 327 3.0 5.0 0.00 0.19 0.00 97 1023.4
20260906055513 49 327 2.0 5.0 0.00 0.19 0.19 97 1023.6
20260906055011 49 327 2.0 6.0 0.00 0.19 0.19 97 1023.8
20260906054524 49 327 3.0 6.0 0.00 0.19 0.19 97 1023.8
20260906054012 49 327 4.0 8.0 0.00 0.19 0.19 97 1023.6
20260906053512 49 327 4.0 10.0 0.00 0.19 0.19 97 1023.5
20260906053024 49 327 7.0 10.0 0.00 0.19 0.19 97 1023.3
20260906052518 49 327 7.0 10.0 0.00 0.19 0.19 97 1023.3
20260906052013 49 327 7.0 11.0 0.00 0.19 0.19 97 1023.3
20260906051518 49 327 8.0 11.0 0.00 0.19 0.19 97 1023.2
20260906051015 49 327 9.0 11.0 0.00 0.19 0.19 97 1023.3
20260906050512 49 327 7.0 11.0 0.00 0.19 0.19 97 1023.4
20260906050026 49 327 7.0 11.0 0.00 0.19 0.19 97 1023.3
20260906045514 49 327 7.0 10.0 0.00 0.19 0.19 97 1023.3
20260906045015 49 327 7.0 9.0 0.00 0.19 0.19 97 1023.3
20260906044504 49 327 7.0 9.0 0.00 0.19 0.19 97 1023.3
20260906044006 48 338 5.0 8.0 0.00 0.19 0.19 97 1023.4
20260906043504 48 338 5.0 8.0 0.00 0.19 0.19 96 1023.1
20260906043004 48 338 5.0 8.0 0.00 0.19 0.19 96 1022.9
20260906042505 49 338 5.0 8.0 0.00 0.19 0.19 96 1022.8
20260906042009 49 338 5.0 8.0 0.00 0.19 0.19 96 1023.1
20260906041521 49 338 5.0 11.0 0.00 0.19 0.19 96 1023.1
20260906041011 49 338 5.0 11.0 0.00 0.19 0.19 96 1022.5
20260906040513 49 333 7.0 11.0 0.00 0.19 0.19 96 1022.1
20260906040020 48 317 7.0 11.0 0.00 0.19 0.19 96 1022.4
20260906035511 49 315 8.0 11.0 0.00 0.19 0.19 96 1022.5
20260906035014 49 315 8.0 10.0 0.00 0.19 0.19 96 1022.7
20260906034529 49 315 8.0 10.0 0.00 0.19 0.19 96 1022.8
20260906034004 49 315 6.0 9.0 0.00 0.19 0.19 96 1022.8
20260906033503 49 314 6.0 10.0 0.00 0.19 0.19 96 1022.9
20260906033005 49 313 6.0 10.0 0.00 0.19 0.19 96 1022.8
20260906032504 49 299 7.0 10.0 0.00 0.19 0.19 96 1022.8
20260906032004 49 300 7.0 10.0 0.00 0.19 0.19 96 1022.8
20260906031508 49 301 7.0 10.0 0.00 0.19 0.19 96 1022.8
20260906031008 49 301 7.0 10.0 0.00 0.19 0.19 95 1022.9
20260906030508 49 301 5.0 9.0 0.00 0.19 0.19 95 1022.9
20260906030013 49 301 7.0 10.0 0.00 0.19 0.19 95 1022.8
20260906025511 50 301 7.0 10.0 0.00 0.19 0.19 95 1022.7
20260906025146 50 301 8.0 11.0 0.00 0.19 0.19 95 1022.4
20260906024522 50 300 7.0 11.0 0.00 0.19 0.19 95 1022.3
20260906024013 50 257 7.0 9.0 0.00 0.19 0.19 95 1022.3
20260906023516 50 257 6.0 8.0 0.00 0.19 0.19 95 1022.4
20260906023024 50 257 6.0 7.0 0.00 0.19 0.19 95 1022.4
20260906022515 50 289 3.0 7.0 0.00 0.19 0.19 95 1022.5
20260906022004 49 289 3.0 4.0 0.00 0.19 0.19 95 1022.4
20260906021504 49 289 3.0 5.0 0.00 0.19 0.19 94 1022.5
20260906021004 50 289 3.0 5.0 0.00 0.19 0.19 94 1022.4
20260906020508 50 289 4.0 8.0 0.00 0.19 0.19 94 1022.2
20260906020010 50 289 4.0 8.0 0.00 0.19 0.19 94 1022.3
20260906015509 51 289 5.0 9.0 0.00 0.19 0.19 93 1022.2
20260906015009 51 289 6.0 9.0 0.00 0.19 0.19 93 1022.1
20260906014521 51 289 6.0 11.0 0.00 0.19 0.19 93 1022.0
20260906014010 52 289 7.0 12.0 0.00 0.19 0.19 93 1021.9
20260906013511 52 289 9.0 13.0 0.00 0.19 0.19 93 1021.8
20260906013027 52 289 8.0 13.0 0.00 0.19 0.19 92 1021.9
20260906012513 52 289 9.0 13.0 0.00 0.19 0.19 92 1021.9
20260906012011 53 289 8.0 11.0 0.00 0.19 0.19 92 1021.9
20260906011528 53 289 8.0 12.0 0.00 0.19 0.19 92 1022.0
20260906011015 53 289 9.0 12.0 0.00 0.19 0.19 92 1021.8
20260906010504 53 289 7.0 11.0 0.00 0.19 0.19 91 1021.8
20260906010006 53 289 7.0 12.0 0.00 0.19 0.19 91 1021.8
20260906005504 54 289 9.0 13.0 0.00 0.19 0.19 90 1021.8
20260906005008 54 289 10.0 13.0 0.00 0.19 0.19 90 1021.8
20260906004517 55 281 8.0 11.0 0.00 0.19 0.19 90 1021.9
20260906004012 54 281 9.0 11.0 0.00 0.19 0.19 91 1022.0
20260906003508 54 276 7.0 11.0 0.00 0.19 0.19 91 1022.0
20260906003016 54 276 8.0 12.0 0.00 0.19 0.19 90 1022.0
20260906002509 54 276 7.0 12.0 0.00 0.19 0.19 90 1022.0
20260906002016 55 276 8.0 11.0 0.00 0.19 0.19 91 1022.0
20260906001523 54 275 8.0 11.0 0.00 0.19 0.19 91 1022.0
20260906001015 55 274 7.0 12.0 0.00 0.19 0.19 91 1022.0
20260906000514 54 273 8.0 12.0 0.00 0.19 0.19 92 1022.0
20260906000029 54 275 9.0 11.0 0.00 0.19 0.19 91 1022.0
20260905235514 55 281 7.0 10.0 0.00 0.19 0.19 92 1022.0
20260905235018 54 281 7.0 11.0 0.00 0.19 0.19 92 1022.0
20260905234508 54 281 6.0 11.0 0.00 0.19 0.19 92 1022.0
20260905234006 54 281 8.0 10.0 0.00 0.19 0.19 91 1021.9
20260905233506 54 289 8.0 10.0 0.00 0.19 0.19 91 1021.9
20260905233016 54 295 7.0 10.0 0.00 0.19 0.19 90 1021.8
20260905232514 55 298 6.0 10.0 0.00 0.19 0.19 90 1021.8
20260905232012 54 298 7.0 9.0 0.00 0.19 0.19 90 1021.8
20260905231530 54 298 6.0 9.0 0.00 0.19 0.19 91 1021.9